SCP
0 0 0 0 0 0 0 0 0 0 0 0 0 0 0 0 0 0 0 0 0 0
0 0 0 0 0 0 0 0 0 0 0 0 0 0 0 0 0 0 0 0 0 0
0 0 0 0 0 0 0 0 0 0 0 0 0 0 0 0 0 0 0 0 0 0
0 0 0 0 0 0 0 0 0 0 0 0 0 0 0 0 0 0 0 0 0 0
0 0 0 0 0 0 0 0 0 0 0 0 0 0 0 0 0 0 0 0 0 0
0 0 0 0 0 0 0 0 0 0 0 0 0 0 0 0 0 0 0 0 0 0
0 0 0 0 0 0 0 0 0 0 0 0 0 0 0 0 0 0 0 0 0 0
0 0 0 0 0 0 0 0 0 0 0 0 0 0 0 0 0 0 0 0 0 0
0 0 0 0 0 0 0 0 0 0 0 0 0 0 0 0 0 0 0 0 0 0
0 0 0 0 0 0 0 0 0 0 0 0 0 0 0 0 0 0 0 0 0 0
0 0 0 0 0 0 0 0 0 0 0 0 0 0 0 0 0 0 0 0 0 0
0 0 0 0 0 0 0 0 0 0 0 0 0 0 0 0 0 0 0 0 0 0
0 0 0 0 0 0 0 0 0 0 0 0 0 0 0 0 0 0 0 0 0 0
0 0 0 0 0 0 0 0 0 0 0 0 0 0 0 0 0 0 0 0 0 0
Wind_Speed_500mb
50 40 25 29 29 30 28 26 24 24 23 26 28 30 33 30 43 36 45 44 42 43
43 43 29 24 27 27 29 27 29 27 27 26 28 30 30 36 36 37 37 38 40 42
31 38 32 24 21 22 23 24 23 21 22 23 24 25 27 26 27 29 31 33 36 38
24 26 24 20 19 18 17 16 15 14 13 11 13 16 19 21 23 25 27 31 34 36
20 23 22 20 19 17 15 13 10 8 7 8 10 13 15 19 22 25 28 31 35 38
27 26 26 24 21 18 15 11 8 5 6 7 10 13 17 21 25 30 33 36 39 43
28 27 25 23 20 15 12 8 6 3 4 9 14 19 24 28 32 35 38 41 44 46
28 25 23 20 17 13 9 4 2 7 11 17 22 27 32 36 41 45 47 49 53 55
27 24 20 17 13 9 4 2 7 12 19 25 31 37 42 46 49 52 55 58 58 59
27 23 19 14 9 4 5 10 16 22 28 33 37 40 44 47 51 55 57 60 64 65
24 19 12 7 6 8 13 18 24 29 33 33 38 42 46 50 55 59 61 63 63 63
18 12 8 8 10 14 19 24 28 31 34 36 41 45 49 54 59 60 61 62 62 60
11 8 8 11 16 22 26 29 32 34 40 44 45 48 50 53 57 60 61 60 60 58
9 10 12 18 21 26 30 34 38 41 43 44 47 48 50 52 56 58 59 61 62 60
Wind_Direction_500mb
225 215 223 220 226 238 237 244 248 247 247 243 249 254 262 261 274 276 280 281 281 281
218 217 208 216 219 226 228 230 233 242 249 249 252 257 262 265 272 268 273 279 284 287
209 199 201 204 209 216 221 229 237 239 242 245 252 257 264 271 278 283 287 291 296 300
184 186 179 185 190 197 205 213 222 222 227 243 257 267 276 283 291 296 299 300 301 303
158 165 167 170 170 166 169 170 183 201 232 259 277 287 297 300 300 301 304 307 311 312
153 155 153 153 155 159 165 167 171 200 242 274 294 301 303 308 313 314 315 315 313 311
158 159 156 155 155 156 160 171 183 227 298 316 318 319 317 316 314 313 313 313 313 313
164 163 160 157 157 158 153 147 29 344 333 325 319 316 314 313 314 314 315 316 316 316
169 166 163 161 158 156 163 311 329 329 323 318 315 313 311 313 314 314 314 313 312 312
174 172 171 173 180 215 285 307 315 317 319 317 315 314 314 314 313 313 313 312 313 312
176 178 183 199 248 291 309 317 318 318 316 315 314 315 315 314 312 313 314 315 316 316
178 188 217 265 295 305 313 316 316 315 314 316 317 318 317 315 315 316 319 320 321 321
200 236 271 293 311 314 312 312 314 316 316 316 317 317 316 316 318 321 322 321 320 320
230 267 293 294 298 305 310 312 311 312 314 318 322 324 323 322 321 321 319 318 317 319
Wind_Speed_850mb
50 40 25 29 29 30 28 26 24 24 23 26 28 30 33 30 43 36 45 44 42 43
43 43 29 24 27 27 29 27 29 27 27 26 28 30 30 36 36 37 37 38 40 42
31 38 32 24 21 22 23 24 23 21 22 23 24 25 27 26 27 29 31 33 36 38
24 26 24 20 19 18 17 16 15 14 13 11 13 16 19 21 23 25 27 31 34 36
20 23 22 20 19 17 15 13 10 8 7 8 10 13 15 19 22 25 28 31 35 38
27 26 26 24 21 18 15 11 8 5 6 7 10 13 17 21 25 30 33 36 39 43
28 27 25 23 20 15 12 8 6 3 4 9 14 19 24 28 32 35 38 41 44 46
28 25 23 20 17 13 9 4 2 7 11 17 22 27 32 36 41 45 47 49 53 55
27 24 20 17 13 9 4 2 7 12 19 25 31 37 42 46 49 52 55 58 58 59
27 23 19 14 9 4 5 10 16 22 28 33 37 40 44 47 51 55 57 60 64 65
24 19 12 7 6 8 13 18 24 29 33 33 38 42 46 50 55 59 61 63 63 63
18 12 8 8 10 14 19 24 28 31 34 36 41 45 49 54 59 60 61 62 62 60
11 8 8 11 16 22 26 29 32 34 40 44 45 48 50 53 57 60 61 60 60 58
9 10 12 18 21 26 30 34 38 41 43 44 47 48 50 52 56 58 59 61 62 60
Wind_Direction_850mb
225 215 223 220 226 238 237 244 248 247 247 243 249 254 262 261 274 276 280 281 281 281
218 217 208 216 219 226 228 230 233 242 249 249 252 257 262 265 272 268 273 279 284 287
209 199 201 204 209 216 221 229 237 239 242 245 252 257 264 271 278 283 287 291 296 300
184 186 179 185 190 197 205 213 222 222 227 243 257 267 276 283 291 296 299 300 301 303
158 165 167 170 170 166 169 170 183 201 232 259 277 287 297 300 300 301 304 307 311 312
153 155 153 153 155 159 165 167 171 200 242 274 294 301 303 308 313 314 315 315 313 311
158 159 156 155 155 156 160 171 183 227 298 316 318 319 317 316 314 313 313 313 313 313
164 163 160 157 157 158 153 147 29 344 333 325 319 316 314 313 314 314 315 316 316 316
169 166 163 161 158 156 163 311 329 329 323 318 315 313 311 313 314 314 314 313 312 312
174 172 171 173 180 215 285 307 315 317 319 317 315 314 314 314 313 313 313 312 313 312
176 178 183 199 248 291 309 317 318 318 316 315 314 315 315 314 312 313 314 315 316 316
178 188 217 265 295 305 313 316 316 315 314 316 317 318 317 315 315 316 319 320 321 321
200 236 271 293 311 314 312 312 314 316 316 316 317 317 316 316 318 321 322 321 320 320
230 267 293 294 298 305 310 312 311 312 314 318 322 324 323 322 321 321 319 318 317 319